Terug naar catalogus

KUIPER-00386

ActiefCommunicatieLEO
NORAD 68921·PAYLOAD·🇺🇸 United States

Gelanceerd Apr 30, 2026 vanaf Guiana Space Centre

Loading…

Volgende Passages (komende 24 uur)

TLE

VersSource: CelesTrak SupGP

Epoch: Sep 14, 2026, 23:42 UTC

1 68921C 26098C   26257.98796296 -.00003116  00000+0 -40780-3 0  2570
2 68921  51.9001  16.0577 0000453 105.2936 151.1966 14.79941748    12

Volg KUIPER-00386 in realtime met AllMySat

Download on the App Store